Weather History for Calgary Springbank, AB

Change the Weather History Date:

Tuesday, December 31, 2013

  Actual Average Record
Temperature  
Mean Temperature 12 °F -  
Max Temperature 23 °F 25 °F 55 °F (1997)
Min Temperature 0 °F 6 °F -16 °F (2010)
Degree Days  
Heating Degree Days 54    
Moisture  
Dew Point 12 °F    
Average Humidity 90    
Maximum Humidity 100    
Minimum Humidity 78    
Precipitation  
Precipitation 0.01 in - - ()
Sea Level Pressure  
Sea Level Pressure 30.17 in    
Wind  
Wind Speed 4 mph ()    
Max Wind Speed 8 mph    
Max Gust Speed -    
Visibility 7.9 miles    
Events Snow    
Averages and records for this station are not official NWS values.
T = Trace of Precipitation, MM = Missing Value Source: Averaged Metar Reports

Daily Weather History Graph

Daily Weather History Graph

Search for Another Location

Airport:

Trip Planner

Search our weather history database for the weather conditions in past years. The results will help you decide how hot, cold, wet, or windy it might be!

Date:

Astronomy

Dec. 31, 2013 Rise Set
Actual Time 8:41 AM MST 4:40 PM MST
Civil Twilight 8:01 AM MST 5:19 PM MST
Nautical Twilight 7:19 AM MST 6:02 PM MST
Astronomical Twilight 6:38 AM MST 6:42 PM MST
Moon 7:32 AM MST (12/31) 4:26 PM MST (12/31)
Length of Visible Light 9h 18m
Length of Day
7h 59m
Waning Crescent, 1% of the Moon is Illuminated
Dec 31
Waning Crescent
Jan 1
New
Jan 7
First Quarter
Jan 15
Full
Jan 23
Last Quarter

Hourly Weather History & Observations

Time (MST) Temp. Windchill Dew Point Humidity Pressure Visibility Wind Dir Wind Speed Gust Speed Precip Events Conditions
5:00 AM 2 °F - -1 °F 78% 30.02 in 7 mi SSE 5.8 mph - -   Clear
5:00 AM 1.4 °F -9.9 °F -2.2 °F 85% 30.02 in 7.0 mi SSE 5.8 mph - N/A   Overcast
6:00 AM 1.4 °F -8.3 °F -2.2 °F 85% 30.03 in 8.0 mi SSE 4.6 mph - N/A   Overcast
7:00 AM 1.4 °F - -2.2 °F 85% 30.08 in 10.0 mi Variable 2.3 mph - N/A   Overcast
8:00 AM 1.4 °F -8.3 °F -2.2 °F 85% 30.10 in 10.0 mi WSW 4.6 mph - N/A Snow Light Snow
9:00 AM 3.2 °F - -0.4 °F 85% 30.12 in 25.0 mi Calm Calm - N/A Snow Light Snow
9:34 AM 3.2 °F -6.2 °F -0.4 °F 85% 30.13 in 25.0 mi NNW 4.6 mph - N/A   Mostly Cloudy
10:00 AM 5.0 °F -5.6 °F 1.4 °F 85% 30.14 in 25.0 mi NNW 5.8 mph - N/A   Mostly Cloudy
10:37 AM 8.6 °F 2.0 °F 5.0 °F 85% 30.13 in 20.0 mi West 3.5 mph - N/A   Mostly Cloudy
11:00 AM 10 °F - 7 °F 83% 30.14 in 28 mi NW 4.6 mph - -   Partly Cloudy
11:00 AM 10.4 °F 0.8 °F 6.8 °F 85% 30.14 in 30.0 mi NNW 5.8 mph - N/A   Mostly Cloudy
12:00 PM 12.2 °F 6.1 °F 10.4 °F 92% 30.13 in 30.0 mi NNW 3.5 mph - N/A   Mostly Cloudy
1:00 PM 17.6 °F - 15.8 °F 93% 30.13 in 30.0 mi Variable 2.3 mph - N/A   Mostly Cloudy
2:00 PM 19.4 °F - 15.8 °F 86% 30.12 in 30.0 mi Calm Calm - N/A   Mostly Cloudy
3:00 PM 21.2 °F 12.6 °F 19.4 °F 93% 30.12 in 30.0 mi ENE 6.9 mph - N/A   Overcast
4:00 PM 21.2 °F - 19.4 °F 93% 30.15 in 25.0 mi ENE 2.3 mph - N/A   Overcast
5:00 PM 20 °F - 18 °F 86% 30.18 in 19 mi West 3.5 mph - -   Overcast
5:00 PM 19.4 °F 14.3 °F 17.6 °F 93% 30.18 in 20.0 mi West 3.5 mph - N/A   Overcast
6:00 PM 19.4 °F - 17.6 °F 93% 30.21 in 15.0 mi Calm Calm - N/A   Overcast
7:00 PM 19.4 °F 14.3 °F 17.6 °F 93% 30.23 in 15.0 mi NNE 3.5 mph - N/A   Overcast
8:00 PM 19.4 °F 10.4 °F 17.6 °F 93% 30.26 in 8.0 mi NW 6.9 mph - N/A Snow Light Snow
8:05 PM 19.4 °F 10.4 °F 17.6 °F 93% 30.26 in 4.0 mi WNW 6.9 mph - N/A Snow Light Snow
8:17 PM 21.2 °F 12.6 °F 19.4 °F 93% 30.27 in 2.2 mi NW 6.9 mph - N/A Snow Light Snow
8:24 PM 21.2 °F 12.6 °F 19.4 °F 93% 30.27 in 1.0 mi WNW 6.9 mph - N/A Snow Light Snow
8:52 PM 21.2 °F 13.6 °F 21.2 °F 100% 30.28 in 0.8 mi West 5.8 mph - N/A Snow Light Snow
9:00 PM 23.0 °F 13.9 °F 21.2 °F 93% 30.28 in 1.8 mi West 8.1 mph - N/A Snow Light Snow
9:36 PM 23.0 °F 15.8 °F 21.2 °F 93% 30.29 in 0.6 mi West 5.8 mph - N/A Snow Light Snow
9:55 PM 23.0 °F 17.0 °F 23.0 °F 100% 30.29 in 0.5 mi NW 4.6 mph - N/A Snow Snow
10:00 PM 23.0 °F 17.0 °F 23.0 °F 100% 30.28 in 0.5 mi NW 4.6 mph - N/A Snow Snow